Home   Weather   New Salem   Past weeks

Flag for USA Past Weather in New Salem, North Dakota, USA — Yesterday and Last 2 Weeks

Now
69 °F

Partly sunny.


Feels Like: 69 °F
Forecast: 54 / 73 °F
Wind: 7 mph from Southwest

Location: Bismarck Municipal Airport

Current Time: Aug 20, 2017 at 6:27:59 pm

Latest Report: Aug 20, 2017 at 5:52 pm


Visibility: 10 mi

Pressure: 30.03 "Hg (27.80 "Hg at 664m altitude)

Humidity: 55%

Dew Point: 52 °F

Location of New SalemLocation

Past Weather in New Salem — Graph

°F

New Salem Temperature Yesterday

Maximum temperature yesterday: 86 °F (at 5:52 pm)
Minimum temperature yesterday: 57 °F (at 6:52 am)
Average temperature yesterday: 72 °F

High & Low Weather Summary for the Past Weeks

 TemperatureHumidityPressure
High86 °F (Aug 19, 5:52 pm)100% (Aug 7, 12:08 am)30.23 "Hg (Aug 7, 12:08 am)
Low50 °F (Aug 14, 4:41 am)32% (Aug 7, 5:52 pm)29.71 "Hg (Aug 19, 5:52 pm)
Average66 °F75%29.98 "Hg
* Reported Aug 5 4:52 pm — Aug 20 4:52 pm, New Salem. Weather by CustomWeather, © 2017

Note: Actual official high and low records may vary slightly from our data, if they occured in-between our weather recording intervals... More about our weather records

Advertising

New Salem Weather History for the Previous 24 Hours

Scroll right to see more
 ConditionsComfort  
Time TempWeatherWind HumidityBarometerVisibility
4:52 pm
Sun, Aug 20
68 °FLight rain. Mostly cloudy.5 mph57%30.03 "Hg10 mi
3:52 pm71 °FPartly sunny.7 mph39%30.01 "Hg10 mi
2:52 pm75 °FSunny.No wind34%30.04 "Hg10 mi
1:52 pm71 °FSunny.9 mph39%30.05 "Hg10 mi
12:52 pm68 °FSunny.7 mph44%30.06 "Hg10 mi
11:52 am68 °FPassing clouds.8 mph47%30.06 "Hg10 mi
10:52 am67 °FSunny.7 mph47%30.07 "Hg10 mi
9:52 am64 °FSunny.3 mph58%30.06 "Hg10 mi
8:52 am62 °FSunny.3 mph60%30.03 "Hg10 mi
7:52 am55 °FSunny.No wind80%30.03 "Hg10 mi
6:52 am58 °FSunny.3 mph67%30.01 "Hg10 mi
5:52 am58 °FClear.5 mph72%30.01 "Hg10 mi
4:52 am60 °FClear.6 mph67%29.97 "Hg10 mi
3:52 am63 °FClear.6 mph56%29.93 "Hg10 mi
2:52 am64 °FClear.7 mph56%29.91 "Hg10 mi
1:52 am68 °FClear.13 mph47%29.89 "Hg10 mi
12:52 am69 °FClear.12 mph47%29.88 "Hg10 mi
11:52 pm
Sat, Aug 19
72 °FClear.14 mph46%29.85 "Hg10 mi
10:52 pm73 °FClear.13 mph55%29.83 "Hg10 mi
9:52 pm76 °FClear.12 mph48%29.80 "Hg10 mi
8:52 pm80 °FClear.16 mph41%29.76 "Hg10 mi
7:52 pm84 °FSunny.5 mph57%29.72 "Hg10 mi
6:52 pm86 °FSunny.5 mph48%29.71 "Hg10 mi
Weather by CustomWeather, © 2017

See weather overviewHow to use our weather pages